Terminal Aerodrome Forecast
Issued by NWS Paducah, KY

Home | Current Version | Previous Version | Text Only | Print | Product List | Glossary On
Versions: 1 2 3 4 5 6 7 8 9 10 11 12 13 14 15 16 17 18
000
FTUS43 KPAH 231200 RRA
TAFEVV
TAF
KEVV 231235Z 2313/2412 15009KT 3SM RA BR OVC005
      TEMPO 2319/2321 2SM SHRA BR OVC003
     FM240200 19012KT P6SM OVC010=

USA.gov is the U.S. government's official web portal to all federal, state and local government web resources and services.